Hourly Data Report for July 04, 2022

LYNN LAKE
MANITOBA
Current Station Operator: NAVCAN

56°51'50.000" N
101°04'34.000" W
356.60 m
5061645
71078
YYL

Download Data

Hourly Data (July 2022)
Hourly Data Report for July 4, 2022
TIME
LST
Temp Definition
°C
Dew Point Definition
°C
Rel Hum Definition
%
Precip. Amount Definition
mm

Wind Dir Definition
10's deg

Wind Spd Definition
km/h
Visibility Definition
km
Stn Press Definition
kPa
Hmdx Definition


Wind Chill Definition


Weather Definition


00:00 8.6 7.4 92 0.0 3 8 16.1 97.63     LegendNANA
01:00 9.8 7.8 87 0.0 4 9 16.1 97.67     LegendNANA
02:00 10.4 7.5 82 0.0 4 11 16.1 97.70     LegendNANA
03:00 10.2 7.3 82 0.0 4 9 16.1 97.71     LegendNANA
04:00 10.3 7.4 82 0.0 5 8 16.1 97.72     LegendNANA
05:00 10.6 7.7 82 0.0 6 8 16.1 97.77     LegendNANA
06:00 11.0 8.0 82 0.0 6 8 16.1 97.82     LegendNANA
07:00 11.4 9.5 88 0.0 6 9 16.1 97.86     Rain
08:00 12.1 9.3 83 0.0 7 11 16.1 97.88     LegendNANA
09:00 13.0 9.2 77 0.0 LegendMM 4 16.1 97.89     LegendNANA
10:00 14.1 9.2 72 0.0   0 16.1 97.87     LegendNANA
11:00 15.5 8.9 64 0.0 6 9 16.1 97.88     LegendNANA
12:00 13.8 10.4 80 0.0 2 17 16.1 97.91     Rain
13:00 14.1 10.2 77 0.0 9 9 16.1 97.91     Rain
14:00 16.2 9.2 63 0.0 14 9 16.1 97.88     LegendNANA
15:00 16.7 8.5 58 0.0 10 15 16.1 97.88     LegendNANA
16:00 18.0 6.2 46 0.0 LegendMM 8 16.1 97.87     LegendNANA
17:00 18.7 6.7 45 0.0 LegendMM 4 16.1 97.85     LegendNANA
18:00 19.1 7.2 46 0.0 15 8 16.1 97.83     LegendNANA
19:00 17.6 7.1 50 0.0   0 16.1 97.82     LegendNANA
20:00 17.9 5.4 43 0.0   0 16.1 97.82     LegendNANA
21:00 14.0 7.8 66 0.0 31 5 16.1 97.84     LegendNANA
22:00 13.6 7.0 64 0.0 12 5 16.1 97.87     LegendNANA
23:00 10.1 7.9 86 0.0 18 5 16.1 97.92     LegendNANA

Notes on Data Quality.

Legend

  • E = Estimated
  • M = Missing
  • NA = Not Available*
  • [empty] = Indicates an unobserved value
Date modified: